Location: Unspecified
(33.6682°S, 0.0000°E)
Time: 07:13:38
(UTC+00:00)

Tiros 1 despin weight - Pass Details

Date: 18 June 2019
Orbit: 594 x 642 km, 48.2° (Epoch: 20 July)

Event Time Altitude Azimuth Distance (km) Brightness Sun altitude
Rises 19:14:10 0° 235° (SW) 2,963 ? -27.3°
Reaches altitude 10° 19:16:33 10° 239° (WSW) 2,044 ? -27.8°
Enters shadow 19:20:27 52° 277° (W) 795 ? -28.6°
Maximum altitude 19:21:11 60° 318° (NW) 734 - -28.8°
Drops below altitude 10° 19:25:43 10° 37° (NE) 1,999 - -29.7°
Sets 19:28:02 0° 40° (NE) 2,892 - -30.2°
